CET,Max TemperatureF,Mean TemperatureF,Min TemperatureF,Max Dew PointF,MeanDew PointF,Min DewpointF,Max Humidity, Mean Humidity, Min Humidity, Max Sea Level PressureIn, Mean Sea Level PressureIn, Min Sea Level PressureIn, Max VisibilityMiles, Mean VisibilityMiles, Min VisibilityMiles, Max Wind SpeedMPH, Mean Wind SpeedMPH, Max Gust SpeedMPH,PrecipitationIn, CloudCover, Events, WindDirDegrees
2012-10-1,57,50,42,50,46,41,100,85,64,30.15,30.07,30.04,16,6,4,8,4,,0.00,5,Rain,270
2012-10-2,65,56,48,52,48,42,94,77,46,30.10,30.06,30.04,12,7,6,12,8,,0.00,6,,228
2012-10-3,66,54,43,50,46,41,93,75,47,30.10,30.03,29.98,19,7,6,16,9,,0.00,1,,216
2012-10-4,67,58,46,54,49,43,88,74,50,30.04,29.90,29.74,6,6,2,32,11,45,0.20,2,Rain,195
2012-10-5,63,51,39,54,46,39,100,78,62,30.11,30.00,29.89,7,6,6,23,12,34,0.00,3,Rain,209
2012-10-6,71,62,53,55,51,45,88,67,40,29.98,29.92,29.83,6,6,6,25,15,37,0.00,5,Rain,230
2012-10-7,52,48,44,50,45,39,100,91,62,30.13,29.96,29.89,16,5,3,16,8,,0.16,7,Rain,1
2012-10-8,54,47,39,39,37,34,93,73,38,30.20,30.11,29.98,19,7,6,15,10,,0.00,3,,245
2012-10-9,55,45,35,45,38,34,93,78,51,29.96,29.86,29.80,12,6,6,16,7,,0.00,2,,256
2012-10-10,50,42,35,39,36,34,93,77,53,30.02,29.95,29.92,19,8,6,9,6,,0.00,4,,263
2012-10-11,52,42,32,39,36,32,100,79,50,30.06,29.96,29.92,19,7,6,9,6,,0.00,3,,159
2012-10-12,50,40,30,48,40,30,100,90,72,29.97,29.87,29.83,9,4,1,9,4,,0.12,7,Fog-Rain,129
2012-10-13,56,48,40,46,41,37,93,78,47,30.05,29.94,29.77,12,6,5,16,10,,0.00,1,,194
2012-10-14,55,47,39,45,41,37,93,81,57,29.81,29.69,29.56,19,10,6,14,7,,0.00,1,,158
2012-10-15,51,44,36,46,41,39,100,89,71,29.89,29.67,29.53,19,4,0,21,7,,0.00,2,Fog-Rain,219
2012-10-16,51,45,39,41,39,36,93,81,58,29.96,29.90,29.86,19,8,6,12,7,,0.00,2,,230
2012-10-17,61,49,37,46,41,36,93,77,48,30.08,30.01,29.92,19,12,6,18,8,,0.00,1,,162
2012-10-18,61,50,39,52,45,36,100,85,68,30.11,30.06,30.04,19,6,3,12,6,,0.00,4,,107
2012-10-19,56,50,44,50,48,43,100,93,82,30.12,30.09,30.06,7,3,0,7,4,,0.00,7,Fog,100
2012-10-20,48,45,42,48,47,43,100,99,93,30.18,30.12,30.09,2,1,0,6,3,,0.00,8,Fog-Rain,217
2012-10-21,47,46,44,47,46,45,100,98,93,30.19,30.14,30.09,2,0,0,5,3,,0.00,8,Fog-Rain,54
2012-10-22,50,47,44,48,46,45,100,97,84,30.27,30.20,30.15,6,2,0,5,3,,0.00,8,Fog,351
2012-10-23,50,48,46,50,48,45,100,97,93,30.30,30.27,30.24,3,1,0,7,4,,0.00,8,Fog,41
2012-10-24,46,45,44,45,45,43,100,98,87,30.25,30.13,30.06,4,2,0,5,2,,0.00,8,Fog-Rain,292
2012-10-25,48,46,44,45,44,43,100,91,78,30.07,29.93,29.83,12,4,2,15,8,,0.00,7,,244
2012-10-26,42,38,35,43,35,30,100,83,62,29.89,29.80,29.56,19,6,2,14,10,,0.04,7,Rain-Snow,33
2012-10-27,32,31,30,36,31,27,100,96,86,29.65,29.43,29.33,6,2,0,24,13,,0.31,8,Fog-Rain-Snow,5
2012-10-28,36,32,26,30,29,25,100,89,65,30.04,29.84,29.68,6,5,1,13,8,,0.00,4,Snow,334
2012-10-29,33,28,24,30,27,23,100,92,81,30.07,29.96,29.86,9,5,4,12,6,,0.00,3,,255
2012-10-30,39,32,24,36,31,23,93,86,73,29.90,29.72,29.65,12,6,5,18,11,,0.00,6,Rain-Snow,214
2012-10-31,50,42,34,37,35,32,100,81,51,29.78,29.68,29.53,16,6,4,18,7,,0.00,5,,144